ITY6MO KMIA-LIRF

Flight info

Callsign ITY6MO
Flight time N/A
Altitude 37000
Route FOLZZ3 SNAGY/M083F370 M203 JNFOX DCT KINER M202 JEBBY/M083F390 M202 LOMPI/N0473F390 DCT SUPRY/M083F400 NATY ELSOX/M084F410 DCT TAKAS/N0488F410 DCT ALUTA DCT KORER DCT LEMKA DCT BEBIX/N0474F400 DCT VALKU/N0479F410 DCT TIS DCT MEBAK DCT GIPNO DCT BALSI DCT OBIGO DCT ROBEX DCT LAPRI/N0471F400 DCT MOGBO/N0475F410 DCT ELB/N0470F400 DCT ELKAP ELKAP3A
Aircraft A359/H-SDE2E3GHIJ3J4J5LM1ORWXY/LB1D1

Departure

Time 2026-05-03 23:13
Airport Miami International Airport (KMIA)

Arrival

Time N/A
Airport Rome–Fiumicino Leonardo da Vinci International Airport (LIRF)
Time Latitude Longitude Altitude Speed Heading
2026-05-03 22:30 25.79119 -80.27603 28 ft 0 kts 268°
2026-05-03 22:55 25.79119 -80.27601 28 ft 1 kts 268°
2026-05-03 22:55 25.79120 -80.27584 27 ft 3 kts 268°
2026-05-03 22:56 25.79121 -80.27563 27 ft 2 kts 268°
2026-05-03 22:56 25.79122 -80.27544 32 ft 3 kts 255°
2026-05-03 22:56 25.79129 -80.27526 31 ft 3 kts 220°
2026-05-03 22:56 25.79145 -80.27517 31 ft 3 kts 183°
2026-05-03 22:57 25.79165 -80.27518 30 ft 3 kts 172°
2026-05-03 22:57 25.79179 -80.27519 32 ft 1 kts 177°
2026-05-03 22:57 25.79183 -80.27520 32 ft 0 kts 177°
2026-05-03 23:04 25.79153 -80.27518 28 ft 13 kts 176°
2026-05-03 23:04 25.79057 -80.27512 29 ft 14 kts 177°
2026-05-03 23:04 25.78960 -80.27508 28 ft 14 kts 179°
2026-05-03 23:04 25.78899 -80.27559 29 ft 11 kts 252°
2026-05-03 23:05 25.78882 -80.27658 28 ft 15 kts 264°
2026-05-03 23:05 25.78875 -80.27786 28 ft 18 kts 266°
2026-05-03 23:05 25.78872 -80.27921 31 ft 17 kts 276°
2026-05-03 23:05 25.78917 -80.28037 32 ft 16 kts 301°
2026-05-03 23:06 25.78981 -80.28159 31 ft 22 kts 299°
2026-05-03 23:06 25.79062 -80.28316 31 ft 24 kts 300°
2026-05-03 23:06 25.79156 -80.28481 31 ft 26 kts 305°
2026-05-03 23:06 25.79249 -80.28654 27 ft 27 kts 300°
2026-05-03 23:07 25.79341 -80.28834 27 ft 26 kts 300°
2026-05-03 23:07 25.79429 -80.29003 31 ft 25 kts 300°
2026-05-03 23:07 25.79512 -80.29164 28 ft 23 kts 300°
2026-05-03 23:07 25.79586 -80.29310 29 ft 21 kts 299°
2026-05-03 23:08 25.79659 -80.29454 26 ft 21 kts 300°
2026-05-03 23:08 25.79728 -80.29590 31 ft 20 kts 300°
2026-05-03 23:08 25.79798 -80.29725 25 ft 20 kts 299°
2026-05-03 23:08 25.79864 -80.29854 25 ft 18 kts 300°
2026-05-03 23:09 25.79912 -80.29949 26 ft 6 kts 298°
2026-05-03 23:09 25.79913 -80.29952 25 ft 0 kts 299°
2026-05-03 23:09 25.79925 -80.29976 27 ft 10 kts 299°
2026-05-03 23:10 25.79958 -80.30041 25 ft 9 kts 299°
2026-05-03 23:10 25.79984 -80.30092 27 ft 6 kts 300°
2026-05-03 23:10 25.80000 -80.30114 30 ft 1 kts 322°
2026-05-03 23:10 25.80050 -80.30126 28 ft 10 kts 13°
2026-05-03 23:11 25.80074 -80.30074 27 ft 8 kts 90°
2026-05-03 23:11 25.80074 -80.30008 25 ft 9 kts 89°
2026-05-03 23:11 25.80076 -80.29984 25 ft 0 kts 85°
2026-05-03 23:12 25.80078 -80.29961 26 ft 19 kts 85°
2026-05-03 23:12 25.80094 -80.29578 25 ft 79 kts 87°
2026-05-03 23:12 25.80129 -80.28763 31 ft 130 kts 88°
2026-05-03 23:12 25.80175 -80.27593 124 ft 163 kts 85°
2026-05-03 23:13 25.80187 -80.26399 777 ft 153 kts 92°
2026-05-03 23:13 25.79975 -80.25208 1148 ft 166 kts 107°
2026-05-03 23:13 25.79515 -80.23952 1380 ft 186 kts 116°
2026-05-03 23:13 25.78897 -80.22591 1565 ft 210 kts 117°
2026-05-03 23:14 25.78193 -80.21064 1791 ft 234 kts 116°
2026-05-03 23:14 25.77428 -80.19378 2104 ft 253 kts 116°
2026-05-03 23:14 25.76627 -80.17600 2636 ft 262 kts 117°
2026-05-03 23:14 25.75750 -80.15794 3196 ft 270 kts 120°
2026-05-03 23:15 25.74836 -80.13950 3789 ft 275 kts 118°
2026-05-03 23:15 25.74287 -80.11907 4391 ft 281 kts 94°
2026-05-03 23:15 25.74638 -80.09784 4929 ft 285 kts 63°
2026-05-03 23:15 25.75781 -80.07981 5501 ft 288 kts 47°
2026-05-03 23:16 25.77124 -80.06307 6131 ft 291 kts 46°
2026-05-03 23:16 25.78474 -80.04643 6748 ft 295 kts 46°
2026-05-03 23:16 25.79845 -80.02934 7355 ft 298 kts 47°
2026-05-03 23:16 25.81242 -80.01177 8027 ft 302 kts 47°
2026-05-03 23:17 25.82638 -79.99414 8720 ft 305 kts 47°
2026-05-03 23:17 25.84045 -79.97632 9404 ft 308 kts 47°
2026-05-03 23:17 25.85466 -79.95829 10072 ft 312 kts 47°
2026-05-03 23:17 25.86923 -79.93980 10431 ft 327 kts 47°
2026-05-03 23:18 25.88463 -79.92026 10674 ft 345 kts 47°
2026-05-03 23:18 25.90064 -79.89991 10919 ft 362 kts 47°
2026-05-03 23:18 25.91756 -79.87838 11199 ft 376 kts 47°
2026-05-03 23:18 25.93490 -79.85629 11671 ft 383 kts 47°
2026-05-03 23:19 25.95254 -79.83380 12207 ft 388 kts 47°
2026-05-03 23:19 25.97037 -79.81106 12762 ft 392 kts 47°
2026-05-03 23:19 25.98841 -79.78805 13302 ft 396 kts 47°
2026-05-03 23:19 26.00637 -79.76513 13802 ft 400 kts 47°
2026-05-03 23:20 26.02476 -79.74164 14267 ft 404 kts 47°
2026-05-03 23:20 26.04328 -79.71799 14727 ft 407 kts 47°
2026-05-03 23:20 26.06197 -79.69410 15185 ft 411 kts 47°
2026-05-03 23:20 26.08087 -79.66994 15644 ft 414 kts 47°
2026-05-03 23:21 26.09978 -79.64561 15928 ft 416 kts 48°
2026-05-03 23:21 26.11744 -79.61990 16123 ft 421 kts 53°
2026-05-03 23:21 26.13448 -79.59320 16601 ft 424 kts 53°
2026-05-03 23:21 26.15151 -79.56630 17083 ft 426 kts 53°
2026-05-03 23:22 26.18599 -79.51186 18021 ft 434 kts 53°
2026-05-03 23:22 26.20335 -79.48448 18377 ft 440 kts 53°
2026-05-03 23:22 26.22104 -79.45656 18771 ft 443 kts 53°
2026-05-03 23:23 26.23889 -79.42839 19171 ft 446 kts 53°
2026-05-03 23:23 26.25687 -79.39999 19594 ft 449 kts 53°
2026-05-03 23:23 26.27516 -79.37168 19998 ft 452 kts 50°
2026-05-03 23:23 26.29661 -79.34603 20394 ft 452 kts 38°
2026-05-03 23:24 26.32199 -79.32531 20808 ft 452 kts 29°
2026-05-03 23:24 26.34855 -79.30637 21218 ft 455 kts 28°
2026-05-03 23:24 26.37538 -79.28744 21620 ft 458 kts 28°
2026-05-03 23:24 26.40235 -79.26835 22021 ft 461 kts 28°
2026-05-03 23:25 26.42946 -79.24910 22424 ft 464 kts 28°
2026-05-03 23:25 26.45692 -79.22956 22818 ft 468 kts 28°
2026-05-03 23:25 26.48450 -79.20990 23190 ft 473 kts 28°
2026-05-03 23:25 26.51236 -79.19003 23562 ft 477 kts 28°
2026-05-03 23:26 26.54046 -79.16996 23908 ft 480 kts 28°
2026-05-03 23:26 26.56866 -79.14980 24261 ft 483 kts 28°
2026-05-03 23:26 26.59706 -79.12949 24617 ft 486 kts 28°
2026-05-03 23:26 26.62516 -79.10938 24992 ft 488 kts 28°
2026-05-03 23:27 26.65390 -79.08880 25366 ft 491 kts 28°
2026-05-03 23:27 26.68276 -79.06812 25720 ft 494 kts 28°
2026-05-03 23:27 26.71177 -79.04732 26099 ft 496 kts 28°
2026-05-03 23:27 26.74090 -79.02642 26504 ft 498 kts 28°
2026-05-03 23:28 26.77015 -79.00543 26883 ft 500 kts 28°
2026-05-03 23:28 26.79950 -78.98435 27252 ft 503 kts 28°
2026-05-03 23:28 26.82901 -78.96314 27613 ft 506 kts 28°
2026-05-03 23:28 26.85874 -78.94176 27952 ft 508 kts 28°
2026-05-03 23:29 26.88856 -78.92029 28303 ft 511 kts 28°
2026-05-03 23:29 26.91854 -78.89871 28651 ft 514 kts 28°
2026-05-03 23:29 26.94872 -78.87697 28977 ft 516 kts 28°
2026-05-03 23:29 26.97866 -78.85538 29312 ft 519 kts 28°
2026-05-03 23:30 27.00908 -78.83343 29637 ft 521 kts 28°
2026-05-03 23:30 27.03969 -78.81133 29936 ft 525 kts 28°
2026-05-03 23:30 27.10193 -78.76637 30252 ft 536 kts 28°
2026-05-03 23:31 27.13345 -78.74356 30544 ft 538 kts 28°
2026-05-03 23:31 27.16500 -78.72071 30804 ft 540 kts 28°
2026-05-03 23:31 27.19660 -78.69782 31053 ft 543 kts 28°
2026-05-03 23:31 27.22850 -78.67470 31325 ft 543 kts 28°
2026-05-03 23:32 27.26004 -78.65180 31781 ft 541 kts 28°
2026-05-03 23:32 27.29159 -78.62890 31952 ft 544 kts 28°
2026-05-03 23:32 27.32335 -78.60558 32128 ft 548 kts 29°
2026-05-03 23:32 27.35534 -78.58172 32323 ft 550 kts 29°
2026-05-03 23:33 27.38706 -78.55804 32516 ft 552 kts 29°
2026-05-03 23:33 27.41909 -78.53415 32707 ft 555 kts 29°
2026-05-03 23:33 27.45139 -78.51007 32883 ft 557 kts 29°
2026-05-03 23:33 27.48380 -78.48591 33132 ft 558 kts 29°
2026-05-03 23:34 27.51589 -78.46196 33403 ft 558 kts 29°
2026-05-03 23:34 27.54857 -78.43757 33656 ft 558 kts 29°
2026-05-03 23:34 27.58075 -78.41355 33942 ft 559 kts 29°
2026-05-03 23:34 27.61332 -78.38923 33855 ft 567 kts 28°
2026-05-03 23:35 27.67955 -78.33971 34227 ft 570 kts 28°
2026-05-03 23:35 27.71250 -78.31502 34498 ft 568 kts 28°
2026-05-03 23:35 27.74552 -78.29027 34726 ft 568 kts 28°
2026-05-03 23:36 27.77851 -78.26553 34949 ft 568 kts 28°
2026-05-03 23:36 27.81143 -78.24083 35155 ft 568 kts 28°
2026-05-03 23:36 27.84390 -78.21645 35363 ft 568 kts 28°
2026-05-03 23:36 27.87703 -78.19155 35571 ft 569 kts 27°
2026-05-03 23:37 27.94356 -78.14153 35726 ft 574 kts 28°
2026-05-03 23:37 27.97636 -78.11681 35966 ft 573 kts 27°
2026-05-03 23:37 28.00971 -78.09166 36190 ft 572 kts 27°
2026-05-03 23:38 28.04274 -78.06674 36378 ft 572 kts 27°
2026-05-03 23:38 28.07578 -78.04180 36556 ft 572 kts 27°
2026-05-03 23:38 28.10903 -78.01669 36726 ft 572 kts 27°
2026-05-03 23:38 28.14206 -77.99171 36951 ft 572 kts 27°
2026-05-03 23:39 28.20875 -77.94127 37061 ft 577 kts 27°
2026-05-03 23:39 28.27553 -77.89065 37073 ft 578 kts 27°
2026-05-03 23:40 28.34214 -77.84006 37069 ft 577 kts 27°
2026-05-03 23:40 28.40895 -77.78926 37121 ft 578 kts 27°
2026-05-03 23:41 28.47581 -77.73835 37079 ft 580 kts 27°
2026-05-03 23:41 28.54293 -77.68716 37079 ft 580 kts 27°
2026-05-03 23:42 28.60999 -77.63592 37079 ft 580 kts 27°
2026-05-03 23:42 28.67662 -77.58495 37106 ft 580 kts 27°
2026-05-03 23:43 28.74376 -77.53352 37083 ft 582 kts 27°
2026-05-03 23:43 28.81101 -77.48189 37082 ft 582 kts 27°
2026-05-03 23:44 28.87818 -77.43025 37085 ft 582 kts 27°
2026-05-03 23:44 28.94546 -77.37844 37148 ft 582 kts 27°
2026-05-03 23:45 29.01257 -77.32670 37094 ft 585 kts 27°
2026-05-03 23:45 29.07983 -77.27475 37094 ft 586 kts 27°
2026-05-03 23:46 29.14762 -77.22230 37064 ft 585 kts 27°
2026-05-03 23:46 29.21451 -77.17048 37152 ft 585 kts 27°
2026-05-03 23:47 29.28200 -77.11809 37107 ft 586 kts 27°
2026-05-03 23:47 29.34943 -77.06567 37108 ft 587 kts 27°
2026-05-03 23:48 29.41703 -77.01303 37106 ft 587 kts 27°
2026-05-03 23:48 29.47350 -76.96899 37153 ft 587 kts 27°
2026-05-03 23:49 29.54074 -76.91648 37111 ft 589 kts 27°
2026-05-03 23:49 29.60738 -76.86090 37082 ft 597 kts 38°
2026-05-03 23:50 29.66460 -76.79128 37121 ft 601 kts 45°
2026-05-03 23:50 29.71894 -76.71811 37117 ft 602 kts 46°
2026-05-03 23:51 29.77302 -76.64451 37116 ft 604 kts 46°
2026-05-03 23:51 29.82788 -76.57074 37120 ft 604 kts 46°
2026-05-03 23:52 29.88241 -76.49785 37103 ft 604 kts 46°
2026-05-03 23:52 29.93743 -76.42428 37122 ft 604 kts 46°
2026-05-03 23:53 29.99237 -76.35060 37124 ft 604 kts 46°
2026-05-03 23:53 30.04667 -76.27760 37127 ft 604 kts 46°
2026-05-03 23:54 30.10177 -76.20340 37127 ft 604 kts 46°
2026-05-03 23:54 30.15606 -76.13013 37102 ft 604 kts 46°
2026-05-03 23:55 30.21061 -76.05639 37164 ft 603 kts 46°
2026-05-03 23:55 30.26523 -75.98241 37130 ft 604 kts 46°
2026-05-03 23:56 30.31963 -75.90859 37130 ft 605 kts 46°
2026-05-03 23:56 30.37434 -75.83421 37130 ft 605 kts 46°
2026-05-03 23:57 30.42886 -75.75995 37122 ft 604 kts 46°
2026-05-03 23:57 30.48296 -75.68611 37138 ft 604 kts 46°
2026-05-03 23:58 30.53756 -75.61147 37134 ft 605 kts 46°
2026-05-03 23:58 30.59206 -75.53681 37135 ft 605 kts 46°
2026-05-03 23:59 30.64612 -75.46262 37137 ft 605 kts 46°
2026-05-03 23:59 30.70051 -75.38783 37170 ft 605 kts 46°
2026-05-04 00:00 30.75490 -75.31290 37143 ft 606 kts 46°
2026-05-04 00:00 30.80883 -75.23846 37145 ft 606 kts 46°
2026-05-04 00:01 30.86328 -75.16315 37143 ft 606 kts 46°
2026-05-04 00:01 30.91744 -75.08810 37143 ft 606 kts 46°
2026-05-04 00:02 30.97159 -75.01292 37139 ft 606 kts 46°
2026-05-04 00:02 31.02587 -74.93743 37142 ft 606 kts 47°
2026-05-04 00:03 31.08003 -74.86193 37143 ft 606 kts 47°
2026-05-04 00:03 31.13390 -74.78670 37141 ft 606 kts 47°
2026-05-04 00:04 31.18817 -74.71078 37155 ft 607 kts 47°
2026-05-04 00:04 31.24221 -74.63501 37143 ft 608 kts 47°
2026-05-04 00:05 31.29602 -74.55942 37146 ft 608 kts 47°
2026-05-04 00:05 31.35026 -74.48308 37148 ft 607 kts 47°
2026-05-04 00:06 31.40430 -74.40687 37159 ft 608 kts 47°
2026-05-04 00:06 31.45824 -74.33065 37140 ft 608 kts 47°
2026-05-04 00:07 31.51218 -74.25428 37146 ft 608 kts 47°
2026-05-04 00:07 31.56614 -74.17771 37149 ft 608 kts 47°
2026-05-04 00:08 31.62001 -74.10113 37205 ft 609 kts 47°
2026-05-04 00:08 31.67352 -74.02492 37151 ft 609 kts 47°
2026-05-04 00:09 31.72745 -73.94795 37143 ft 610 kts 47°
2026-05-04 00:09 31.78134 -73.87088 37146 ft 610 kts 47°
2026-05-04 00:10 31.83519 -73.79380 37145 ft 610 kts 47°
2026-05-04 00:10 31.88877 -73.71682 37144 ft 610 kts 47°
2026-05-04 00:11 31.94261 -73.63927 37144 ft 610 kts 47°
2026-05-04 00:11 31.99631 -73.56180 37146 ft 610 kts 47°
2026-05-04 00:12 32.05000 -73.48421 37146 ft 610 kts 47°
2026-05-04 00:12 32.10369 -73.40648 37149 ft 611 kts 47°
2026-05-04 00:13 32.15726 -73.32875 37146 ft 611 kts 47°
2026-05-04 00:13 32.21052 -73.25131 37142 ft 611 kts 47°
2026-05-04 00:14 32.26417 -73.17313 37145 ft 612 kts 47°
2026-05-04 00:14 32.31769 -73.09500 37145 ft 612 kts 47°
2026-05-04 00:15 32.37133 -73.01656 37147 ft 612 kts 47°
2026-05-04 00:15 32.42468 -72.93830 37125 ft 612 kts 47°
2026-05-04 00:16 32.47796 -72.85998 37152 ft 612 kts 47°
2026-05-04 00:16 32.53146 -72.78121 37149 ft 612 kts 47°
2026-05-04 00:17 32.58481 -72.70249 37147 ft 613 kts 47°
2026-05-04 00:17 32.63782 -72.62411 37145 ft 613 kts 47°
2026-05-04 00:18 32.69126 -72.54493 37145 ft 613 kts 47°
2026-05-04 00:18 32.74450 -72.46586 37161 ft 613 kts 47°
2026-05-04 00:19 32.79745 -72.38708 37148 ft 614 kts 47°
2026-05-04 00:19 32.85100 -72.30722 37144 ft 614 kts 48°
2026-05-04 00:20 32.90408 -72.22788 37126 ft 614 kts 48°
2026-05-04 00:20 32.95700 -72.14862 37155 ft 614 kts 48°
2026-05-04 00:21 33.01008 -72.06896 37150 ft 615 kts 48°
2026-05-04 00:21 33.06337 -71.98890 37142 ft 615 kts 48°
2026-05-04 00:22 33.11627 -71.90913 37121 ft 615 kts 48°
2026-05-04 00:22 33.16931 -71.82892 37144 ft 615 kts 47°
2026-05-04 00:23 33.22235 -71.74860 37142 ft 616 kts 48°
2026-05-04 00:23 33.27543 -71.66806 37145 ft 616 kts 48°
2026-05-04 00:24 33.32838 -71.58753 37143 ft 616 kts 48°
2026-05-04 00:24 33.38138 -71.50675 37142 ft 617 kts 47°
2026-05-04 00:25 33.43423 -71.42604 37146 ft 617 kts 47°
2026-05-04 00:25 33.48728 -71.34481 37146 ft 617 kts 48°
2026-05-04 00:26 33.53994 -71.26402 37140 ft 618 kts 48°
2026-05-04 00:26 33.59293 -71.18255 37143 ft 619 kts 47°
2026-05-04 00:27 33.64580 -71.10107 37143 ft 620 kts 48°
2026-05-04 00:27 33.70302 -71.02504 37152 ft 606 kts 32°
2026-05-04 00:28 33.76857 -70.96168 37153 ft 603 kts 29°
2026-05-04 00:28 33.83521 -70.90105 37136 ft 602 kts 28°
2026-05-04 00:29 33.90226 -70.84051 37139 ft 602 kts 28°
2026-05-04 00:29 33.96915 -70.77951 37196 ft 602 kts 28°
2026-05-04 00:30 34.03587 -70.71825 37139 ft 604 kts 28°
2026-05-04 00:30 34.10265 -70.65673 37132 ft 604 kts 28°
2026-05-04 00:31 34.16953 -70.59499 37138 ft 604 kts 29°
2026-05-04 00:31 34.23592 -70.53362 37132 ft 605 kts 28°
2026-05-04 00:32 34.30284 -70.47166 37132 ft 605 kts 28°
2026-05-04 00:32 34.36964 -70.40966 37132 ft 605 kts 28°
2026-05-04 00:33 34.46997 -70.31630 37128 ft 605 kts 28°
2026-05-04 00:34 34.53646 -70.25427 37127 ft 605 kts 28°
2026-05-04 00:34 34.60310 -70.19198 37146 ft 605 kts 28°
2026-05-04 00:35 34.65891 -70.13970 37128 ft 605 kts 28°
2026-05-04 00:35 34.72524 -70.07746 37128 ft 605 kts 28°
2026-05-04 00:36 34.80266 -70.00465 37125 ft 605 kts 28°
2026-05-04 00:36 34.86926 -69.94187 37124 ft 606 kts 28°
2026-05-04 00:37 34.92515 -69.88910 37118 ft 606 kts 28°
2026-05-04 00:37 34.99171 -69.82611 37129 ft 606 kts 28°
2026-05-04 00:38 35.05801 -69.76321 37126 ft 606 kts 28°
2026-05-04 00:38 35.12442 -69.70011 37117 ft 606 kts 28°
2026-05-04 00:39 35.19115 -69.63656 37114 ft 606 kts 28°
2026-05-04 00:39 35.25766 -69.57308 37122 ft 606 kts 28°
2026-05-04 00:40 35.32376 -69.50985 37091 ft 605 kts 28°
2026-05-04 00:40 35.39013 -69.44624 37108 ft 605 kts 28°
2026-05-04 00:41 35.45617 -69.38282 37124 ft 605 kts 28°
2026-05-04 00:41 35.52256 -69.31890 37105 ft 605 kts 28°
2026-05-04 00:42 35.58869 -69.25510 37100 ft 605 kts 28°
2026-05-04 00:42 35.65491 -69.19109 37073 ft 605 kts 28°
2026-05-04 00:43 35.72089 -69.12714 37100 ft 603 kts 28°
2026-05-04 00:43 35.78669 -69.06327 37095 ft 604 kts 28°
2026-05-04 00:44 35.85249 -68.99926 37113 ft 604 kts 28°
2026-05-04 00:44 35.91852 -68.93484 37090 ft 602 kts 28°
2026-05-04 00:45 35.98419 -68.87065 37092 ft 601 kts 28°
2026-05-04 00:45 36.04952 -68.80669 37109 ft 602 kts 28°
2026-05-04 00:46 36.11486 -68.74254 37086 ft 600 kts 28°
2026-05-04 00:46 36.18018 -68.67828 37084 ft 600 kts 28°
2026-05-04 00:47 36.24553 -68.61386 37103 ft 600 kts 29°
2026-05-04 00:47 36.31063 -68.54950 37078 ft 597 kts 29°
2026-05-04 00:48 36.37548 -68.48528 37073 ft 598 kts 28°
2026-05-04 00:48 36.44082 -68.42048 37074 ft 599 kts 28°
2026-05-04 00:49 36.50531 -68.35635 37074 ft 599 kts 29°
2026-05-04 00:49 36.56938 -68.28915 37070 ft 611 kts 38°
2026-05-04 00:50 36.62429 -68.20694 37091 ft 618 kts 46°
2026-05-04 00:50 36.67611 -68.12177 37066 ft 619 kts 47°
2026-05-04 00:51 36.72735 -68.03582 37068 ft 619 kts 47°
2026-05-04 00:51 36.77864 -67.95017 37067 ft 619 kts 47°
2026-05-04 00:52 36.83023 -67.86439 37063 ft 616 kts 47°
2026-05-04 00:52 36.88172 -67.77872 37059 ft 615 kts 47°
2026-05-04 00:53 36.93271 -67.69368 37058 ft 615 kts 47°
2026-05-04 00:53 36.98387 -67.60809 37064 ft 613 kts 47°
2026-05-04 00:54 37.03474 -67.52267 37037 ft 610 kts 47°
2026-05-04 00:54 37.08557 -67.43719 37049 ft 612 kts 47°
2026-05-04 00:55 37.13626 -67.35172 37078 ft 613 kts 48°
2026-05-04 00:55 37.18689 -67.26606 37043 ft 609 kts 48°
2026-05-04 00:56 37.23706 -67.18101 37041 ft 609 kts 48°
2026-05-04 00:56 37.28753 -67.09527 37037 ft 611 kts 48°
2026-05-04 00:57 37.33789 -67.00946 37031 ft 608 kts 49°
2026-05-04 00:57 37.38803 -66.92378 37029 ft 607 kts 49°
2026-05-04 00:58 37.43799 -66.83823 37035 ft 609 kts 48°
2026-05-04 00:58 37.48820 -66.75208 37023 ft 608 kts 49°
2026-05-04 00:59 37.53780 -66.66660 37020 ft 605 kts 49°
2026-05-04 00:59 37.58756 -66.58069 37019 ft 605 kts 49°
2026-05-04 01:00 37.63709 -66.49498 37027 ft 606 kts 50°
2026-05-04 01:00 37.68643 -66.40936 37017 ft 604 kts 50°
2026-05-04 01:01 37.73591 -66.32327 37018 ft 604 kts 50°
2026-05-04 01:01 37.78502 -66.23762 37005 ft 603 kts 50°
2026-05-04 01:02 37.83434 -66.15139 37010 ft 604 kts 50°
2026-05-04 01:02 37.88365 -66.06492 37005 ft 605 kts 50°
2026-05-04 01:03 37.93262 -65.97885 37004 ft 605 kts 50°
2026-05-04 01:03 37.98179 -65.89215 36988 ft 602 kts 50°
2026-05-04 01:04 38.03071 -65.80569 36990 ft 604 kts 50°
2026-05-04 01:04 38.07955 -65.71919 37003 ft 604 kts 50°
2026-05-04 01:05 38.12832 -65.63255 36981 ft 604 kts 51°
2026-05-04 01:05 38.17720 -65.54548 36985 ft 605 kts 51°
2026-05-04 01:06 38.22603 -65.45829 36985 ft 606 kts 51°
2026-05-04 01:06 38.27465 -65.37122 36980 ft 604 kts 51°
2026-05-04 01:07 38.32314 -65.28412 36948 ft 602 kts 51°
2026-05-04 01:07 38.37152 -65.19704 36969 ft 604 kts 51°
2026-05-04 01:08 38.42009 -65.10937 36967 ft 603 kts 51°
2026-05-04 01:08 38.46809 -65.02246 36965 ft 600 kts 51°
2026-05-04 01:09 38.51917 -64.93890 36950 ft 596 kts 44°
2026-05-04 01:09 38.57477 -64.85999 36952 ft 596 kts 43°
2026-05-04 01:10 38.63074 -64.78227 36952 ft 593 kts 43°
2026-05-04 01:10 38.68642 -64.70498 36940 ft 593 kts 43°
2026-05-04 01:11 38.74252 -64.62666 36946 ft 592 kts 43°
2026-05-04 01:11 38.79782 -64.54908 36935 ft 592 kts 43°
2026-05-04 01:12 38.85332 -64.47102 36930 ft 591 kts 43°
2026-05-04 01:12 38.90858 -64.39311 36927 ft 591 kts 44°
2026-05-04 01:13 38.96385 -64.31499 36919 ft 591 kts 44°
2026-05-04 01:13 39.01929 -64.23646 36917 ft 592 kts 44°
2026-05-04 01:14 39.07436 -64.15825 36916 ft 591 kts 44°
2026-05-04 01:14 39.12957 -64.07962 36903 ft 591 kts 44°
2026-05-04 01:15 39.18465 -64.00098 36925 ft 592 kts 45°
2026-05-04 01:15 39.23982 -63.92205 36897 ft 591 kts 45°
2026-05-04 01:16 39.29468 -63.84333 36892 ft 591 kts 45°
2026-05-04 01:16 39.34962 -63.76430 36894 ft 591 kts 45°
2026-05-04 01:17 39.40440 -63.68530 36877 ft 591 kts 45°
2026-05-04 01:17 39.45898 -63.60639 36873 ft 591 kts 45°
2026-05-04 01:18 39.51398 -63.52667 36867 ft 591 kts 45°
2026-05-04 01:18 39.56850 -63.44744 36863 ft 589 kts 45°
2026-05-04 01:19 39.62298 -63.36807 36854 ft 591 kts 45°
2026-05-04 01:19 39.67768 -63.28819 36842 ft 592 kts 45°
2026-05-04 01:20 39.73205 -63.20856 36839 ft 592 kts 46°
2026-05-04 01:20 39.78685 -63.12811 36831 ft 592 kts 46°
2026-05-04 01:21 39.84114 -63.04819 36829 ft 592 kts 46°
2026-05-04 01:21 39.89593 -62.96733 36829 ft 592 kts 46°
2026-05-04 01:22 39.95002 -62.88728 36822 ft 592 kts 46°
2026-05-04 01:22 39.99529 -62.82013 36780 ft 591 kts 46°
2026-05-04 01:23 40.05866 -62.72589 36808 ft 592 kts 46°
2026-05-04 01:23 40.11272 -62.64528 36811 ft 591 kts 47°
2026-05-04 01:24 40.15817 -62.57733 36788 ft 591 kts 47°
2026-05-04 01:24 40.21188 -62.49682 36777 ft 591 kts 47°
2026-05-04 01:25 40.26604 -62.41545 36784 ft 591 kts 47°
2026-05-04 01:25 40.31983 -62.33441 36780 ft 590 kts 47°
2026-05-04 01:26 40.37363 -62.25315 36778 ft 590 kts 47°
2026-05-04 01:26 40.42738 -62.17172 36758 ft 589 kts 47°
2026-05-04 01:27 40.48106 -62.09020 36749 ft 589 kts 47°
2026-05-04 01:27 40.53439 -62.00902 36743 ft 588 kts 48°
2026-05-04 01:28 40.58757 -61.92782 36738 ft 587 kts 48°
2026-05-04 01:28 40.64086 -61.84625 36776 ft 588 kts 48°
2026-05-04 01:29 40.69422 -61.76435 36720 ft 587 kts 49°
2026-05-04 01:29 40.74713 -61.68291 36715 ft 587 kts 49°
2026-05-04 01:30 40.80009 -61.60119 36720 ft 586 kts 49°
2026-05-04 01:30 40.85302 -61.51929 36714 ft 585 kts 49°
2026-05-04 01:31 40.90578 -61.43743 36710 ft 585 kts 49°
2026-05-04 01:31 40.95839 -61.35559 36696 ft 583 kts 49°
2026-05-04 01:32 41.01085 -61.27377 36687 ft 584 kts 49°
2026-05-04 01:32 41.06358 -61.19129 36687 ft 585 kts 49°
2026-05-04 01:33 41.11600 -61.10908 36679 ft 585 kts 49°
2026-05-04 01:33 41.16863 -61.02632 36658 ft 585 kts 50°
2026-05-04 01:34 41.22101 -60.94373 36670 ft 585 kts 50°
2026-05-04 01:34 41.27346 -60.86080 36679 ft 585 kts 50°
2026-05-04 01:35 41.32550 -60.77828 36660 ft 585 kts 50°
2026-05-04 01:35 41.37794 -60.69491 36655 ft 584 kts 50°
2026-05-04 01:36 41.42995 -60.61199 36647 ft 584 kts 50°
2026-05-04 01:36 41.48206 -60.52868 36641 ft 584 kts 51°
2026-05-04 01:37 41.53407 -60.44530 36634 ft 583 kts 51°
2026-05-04 01:37 41.58578 -60.36219 36641 ft 583 kts 51°
2026-05-04 01:38 41.63757 -60.27871 36629 ft 583 kts 51°
2026-05-04 01:38 41.68907 -60.19545 36621 ft 582 kts 51°
2026-05-04 01:39 41.74070 -60.11177 36616 ft 582 kts 51°
2026-05-04 01:39 41.79228 -60.02793 36614 ft 582 kts 51°
2026-05-04 01:40 41.84365 -59.94420 36603 ft 582 kts 52°
2026-05-04 01:40 41.89499 -59.86028 36604 ft 582 kts 52°
2026-05-04 01:41 41.94608 -59.77653 36591 ft 582 kts 52°
2026-05-04 01:41 41.99775 -59.69160 36597 ft 585 kts 52°
2026-05-04 01:42 42.04887 -59.60734 36592 ft 585 kts 52°
2026-05-04 01:42 42.10015 -59.52258 36586 ft 585 kts 52°
2026-05-04 01:43 42.15157 -59.43735 36586 ft 584 kts 53°
2026-05-04 01:43 42.20265 -59.35242 36581 ft 584 kts 53°
2026-05-04 01:44 42.25397 -59.26686 36579 ft 584 kts 53°
2026-05-04 01:44 42.30484 -59.18181 36581 ft 583 kts 53°
2026-05-04 01:45 42.35573 -59.09648 36576 ft 583 kts 53°
2026-05-04 01:45 42.43189 -58.96830 36569 ft 583 kts 53°
2026-05-04 01:46 42.48264 -58.88261 36570 ft 583 kts 53°
2026-05-04 01:46 42.53355 -58.79639 36566 ft 583 kts 53°
2026-05-04 01:47 42.58386 -58.71094 36570 ft 582 kts 53°
2026-05-04 01:47 42.63441 -58.62481 36572 ft 582 kts 53°
2026-05-04 01:48 42.68467 -58.53896 36568 ft 582 kts 54°
2026-05-04 01:48 42.73494 -58.45281 36568 ft 581 kts 54°
2026-05-04 01:49 42.78526 -58.36633 36505 ft 581 kts 54°
2026-05-04 01:49 42.83527 -58.28013 36566 ft 581 kts 54°
2026-05-04 01:50 42.88526 -58.19374 36564 ft 581 kts 54°
2026-05-04 01:50 42.93546 -58.10672 36560 ft 581 kts 54°
2026-05-04 01:51 42.98539 -58.01992 36564 ft 581 kts 55°
2026-05-04 01:51 43.03494 -57.93351 36568 ft 581 kts 55°
2026-05-04 01:52 43.09129 -57.85342 36614 ft 588 kts 36°
2026-05-04 01:52 43.12396 -57.82054 36881 ft 586 kts 35°
2026-05-04 01:52 43.15737 -57.78863 37208 ft 583 kts 34°
2026-05-04 01:53 43.19094 -57.75755 37563 ft 579 kts 33°
2026-05-04 01:53 43.22418 -57.72719 37856 ft 576 kts 33°
2026-05-04 01:53 43.25769 -57.69664 38093 ft 574 kts 33°
2026-05-04 01:53 43.29054 -57.66658 38297 ft 573 kts 33°
2026-05-04 01:54 43.32382 -57.63597 38452 ft 572 kts 33°
2026-05-04 01:54 43.35699 -57.60529 38531 ft 573 kts 33°
2026-05-04 01:54 43.42307 -57.54389 38547 ft 575 kts 34°
2026-05-04 01:55 43.48911 -57.48226 38551 ft 574 kts 34°
2026-05-04 01:55 43.55514 -57.42049 38537 ft 573 kts 34°
2026-05-04 01:56 43.62083 -57.35890 38541 ft 572 kts 34°
2026-05-04 01:56 43.68673 -57.29696 38537 ft 572 kts 34°
2026-05-04 01:57 43.75254 -57.23493 38520 ft 571 kts 34°
2026-05-04 01:57 43.81821 -57.17287 38522 ft 571 kts 34°
2026-05-04 01:58 43.88367 -57.11083 38523 ft 571 kts 34°
2026-05-04 01:58 43.94877 -57.04879 38522 ft 571 kts 36°
2026-05-04 01:59 43.97925 -57.01315 38524 ft 569 kts 47°
2026-05-04 01:59 44.00481 -56.97128 38527 ft 563 kts 59°
2026-05-04 01:59 44.04171 -56.87673 38514 ft 556 kts 69°
2026-05-04 02:00 44.07373 -56.77928 38535 ft 553 kts 71°
2026-05-04 02:00 44.10483 -56.68194 38495 ft 552 kts 71°
2026-05-04 02:01 44.13626 -56.58429 38534 ft 554 kts 71°
2026-05-04 02:01 44.16797 -56.48637 38540 ft 553 kts 71°
2026-05-04 02:02 44.19960 -56.38857 38540 ft 553 kts 71°
2026-05-04 02:02 44.23111 -56.29076 38539 ft 553 kts 71°
2026-05-04 02:03 44.26235 -56.19339 38543 ft 553 kts 71°
2026-05-04 02:03 44.29383 -56.09484 38548 ft 553 kts 71°
2026-05-04 02:04 44.32491 -55.99723 38548 ft 553 kts 71°
2026-05-04 02:04 44.35608 -55.89894 38512 ft 553 kts 72°
2026-05-04 02:05 44.38733 -55.80001 38551 ft 557 kts 72°
2026-05-04 02:05 44.41858 -55.70063 38552 ft 562 kts 72°
2026-05-04 02:06 44.45013 -55.60005 38562 ft 562 kts 72°
2026-05-04 02:06 44.48140 -55.50001 38581 ft 562 kts 72°
2026-05-04 02:07 44.51268 -55.39947 38583 ft 564 kts 72°
2026-05-04 02:07 44.54393 -55.29862 38583 ft 564 kts 72°
2026-05-04 02:08 44.57509 -55.19771 38583 ft 564 kts 72°
2026-05-04 02:08 44.60612 -55.09676 38550 ft 566 kts 72°
2026-05-04 02:09 44.63723 -54.99512 38586 ft 570 kts 72°
2026-05-04 02:09 44.66836 -54.89305 38597 ft 571 kts 72°
2026-05-04 02:10 44.69964 -54.79019 38606 ft 570 kts 72°
2026-05-04 02:10 44.72551 -54.70481 38606 ft 570 kts 73°
2026-05-04 02:11 44.75629 -54.60276 38614 ft 569 kts 73°
2026-05-04 02:11 44.78715 -54.50002 38622 ft 569 kts 73°
2026-05-04 02:12 44.81790 -54.39721 38625 ft 570 kts 73°
2026-05-04 02:12 44.84853 -54.29441 38599 ft 570 kts 73°
2026-05-04 02:13 44.87930 -54.19067 38652 ft 572 kts 72°
2026-05-04 02:13 44.90974 -54.08764 38655 ft 573 kts 72°
2026-05-04 02:14 44.94042 -53.98343 38664 ft 573 kts 73°
2026-05-04 02:14 44.97079 -53.87986 38673 ft 573 kts 73°
2026-05-04 02:15 45.00123 -53.77554 38681 ft 573 kts 73°
2026-05-04 02:15 45.03155 -53.67122 38692 ft 573 kts 73°
2026-05-04 02:16 45.06160 -53.56740 38698 ft 573 kts 73°
2026-05-04 02:16 45.09174 -53.46284 38661 ft 572 kts 72°
2026-05-04 02:17 45.12166 -53.35859 38710 ft 572 kts 72°
2026-05-04 02:17 45.15150 -53.25419 38733 ft 572 kts 72°
2026-05-04 02:18 45.18121 -53.14976 38733 ft 572 kts 72°
2026-05-04 02:18 45.21079 -53.04536 38727 ft 572 kts 72°
2026-05-04 02:19 45.24040 -52.94043 38760 ft 572 kts 72°
2026-05-04 02:19 45.26974 -52.83601 38760 ft 572 kts 72°
2026-05-04 02:20 45.29913 -52.73096 38765 ft 572 kts 72°
2026-05-04 02:20 45.32843 -52.62578 38768 ft 572 kts 72°
2026-05-04 02:21 45.35754 -52.52078 38786 ft 571 kts 72°
2026-05-04 02:21 45.38668 -52.41526 38792 ft 571 kts 72°
2026-05-04 02:22 45.41549 -52.31051 38802 ft 570 kts 72°
2026-05-04 02:22 45.44421 -52.20558 38808 ft 571 kts 72°
2026-05-04 02:23 45.47297 -52.10006 38810 ft 571 kts 72°
2026-05-04 02:23 45.50170 -51.99419 38983 ft 569 kts 72°
2026-05-04 02:24 45.51566 -51.94213 39234 ft 566 kts 72°
2026-05-04 02:24 45.52941 -51.88945 39475 ft 562 kts 72°
2026-05-04 02:24 45.54271 -51.83777 39690 ft 560 kts 72°
2026-05-04 02:24 45.55605 -51.78567 39813 ft 559 kts 72°
2026-05-04 02:25 45.58279 -51.68123 39830 ft 561 kts 72°
2026-05-04 02:25 45.60965 -51.57645 39842 ft 561 kts 72°
2026-05-04 02:26 45.63635 -51.47206 39854 ft 561 kts 72°
2026-05-04 02:26 45.66301 -51.36739 39857 ft 560 kts 72°
2026-05-04 02:27 45.68966 -51.26228 39869 ft 560 kts 72°
2026-05-04 02:27 45.71615 -51.15724 39867 ft 560 kts 72°
2026-05-04 02:28 45.74247 -51.05243 39871 ft 560 kts 72°
2026-05-04 02:28 45.76859 -50.94794 39838 ft 561 kts 72°
2026-05-04 02:29 45.79478 -50.84268 39882 ft 561 kts 72°
2026-05-04 02:29 45.82097 -50.73691 39885 ft 562 kts 72°
2026-05-04 02:30 45.84694 -50.63156 39889 ft 563 kts 72°
2026-05-04 02:30 45.87290 -50.52578 39897 ft 563 kts 72°
2026-05-04 02:31 45.89889 -50.41937 39895 ft 563 kts 72°
2026-05-04 02:31 45.92454 -50.31382 39900 ft 563 kts 72°
2026-05-04 02:32 45.95027 -50.20745 39905 ft 563 kts 72°
2026-05-04 02:32 45.97597 -50.10075 39902 ft 563 kts 72°
2026-05-04 02:33 46.00137 -49.99475 39905 ft 563 kts 72°
2026-05-04 02:33 46.02761 -49.88861 39917 ft 564 kts 71°
2026-05-04 02:34 46.05465 -49.78187 39914 ft 564 kts 71°
2026-05-04 02:34 46.08119 -49.67631 39914 ft 564 kts 71°
2026-05-04 02:35 46.10768 -49.56981 39924 ft 565 kts 71°
2026-05-04 02:35 46.13412 -49.46274 39930 ft 566 kts 71°
2026-05-04 02:36 46.16038 -49.35589 39927 ft 566 kts 71°
2026-05-04 02:36 46.18651 -49.24910 39933 ft 566 kts 71°
2026-05-04 02:37 46.21274 -49.14137 39938 ft 566 kts 70°
2026-05-04 02:37 46.23861 -49.03467 39941 ft 566 kts 70°
2026-05-04 02:38 46.26452 -48.92728 39942 ft 566 kts 70°
2026-05-04 02:38 46.29046 -48.81918 39947 ft 566 kts 70°
2026-05-04 02:39 46.31618 -48.71152 39949 ft 566 kts 70°
2026-05-04 02:39 46.34163 -48.60448 39958 ft 567 kts 70°
2026-05-04 02:40 46.36723 -48.49629 39958 ft 566 kts 70°
2026-05-04 02:40 46.39259 -48.38853 39965 ft 567 kts 70°
2026-05-04 02:41 46.41789 -48.28056 39958 ft 567 kts 70°
2026-05-04 02:41 46.44329 -48.17157 39973 ft 567 kts 70°
2026-05-04 02:42 46.46837 -48.06341 39978 ft 566 kts 70°
2026-05-04 02:42 46.49324 -47.95567 39986 ft 566 kts 70°
2026-05-04 02:43 46.51823 -47.84683 39981 ft 565 kts 70°
2026-05-04 02:43 46.54297 -47.73853 39989 ft 565 kts 70°
2026-05-04 02:44 46.56748 -47.63073 40001 ft 565 kts 70°
2026-05-04 02:44 46.59210 -47.52184 39998 ft 564 kts 70°
2026-05-04 02:45 46.61640 -47.41386 40001 ft 564 kts 70°
2026-05-04 02:45 46.64063 -47.30560 40006 ft 564 kts 70°
2026-05-04 02:46 46.66487 -47.19673 40014 ft 563 kts 69°
2026-05-04 02:46 46.68894 -47.08813 40019 ft 562 kts 70°
2026-05-04 02:47 46.71272 -46.98029 40016 ft 562 kts 70°
2026-05-04 02:47 46.73649 -46.87189 40026 ft 562 kts 70°
2026-05-04 02:48 46.76017 -46.76331 40037 ft 560 kts 70°
2026-05-04 02:48 46.78358 -46.65545 40037 ft 558 kts 70°
2026-05-04 02:49 46.80698 -46.54708 40046 ft 558 kts 70°
2026-05-04 02:49 46.83022 -46.43888 40059 ft 558 kts 69°
2026-05-04 02:50 46.85324 -46.33113 40049 ft 555 kts 69°
2026-05-04 02:50 46.87603 -46.22386 40057 ft 553 kts 69°
2026-05-04 02:51 46.89870 -46.11665 40070 ft 553 kts 69°
2026-05-04 02:51 46.92133 -46.00910 40069 ft 553 kts 69°
2026-05-04 02:52 46.94383 -45.90153 40075 ft 553 kts 69°
2026-05-04 02:52 46.96621 -45.79399 40080 ft 553 kts 70°
2026-05-04 02:53 46.98868 -45.68543 40084 ft 554 kts 70°
2026-05-04 02:53 47.01086 -45.57763 40086 ft 551 kts 70°
2026-05-04 02:54 47.03265 -45.47112 40087 ft 547 kts 70°
2026-05-04 02:54 47.05436 -45.36456 40102 ft 546 kts 70°
2026-05-04 02:55 47.08679 -45.20434 40118 ft 546 kts 70°
2026-05-04 02:56 47.10466 -45.11540 40116 ft 543 kts 70°
2026-05-04 02:56 47.12950 -44.99113 40115 ft 542 kts 70°
2026-05-04 02:57 47.15061 -44.88497 40121 ft 542 kts 70°
2026-05-04 02:57 47.17158 -44.77891 40142 ft 541 kts 70°
2026-05-04 02:58 47.19231 -44.67329 40133 ft 531 kts 70°
2026-05-04 02:58 47.21257 -44.56964 40139 ft 528 kts 70°
2026-05-04 02:59 47.22946 -44.48290 40140 ft 528 kts 70°
2026-05-04 02:59 47.24955 -44.37919 40166 ft 526 kts 70°
2026-05-04 03:00 47.26951 -44.27549 40155 ft 525 kts 70°
2026-05-04 03:00 47.28925 -44.17253 40159 ft 525 kts 70°
2026-05-04 03:01 47.30904 -44.06865 40164 ft 525 kts 70°
2026-05-04 03:01 47.32856 -43.96555 40192 ft 525 kts 70°
2026-05-04 03:02 47.34804 -43.86207 40174 ft 522 kts 69°
2026-05-04 03:02 47.36741 -43.75863 40182 ft 521 kts 70°
2026-05-04 03:03 47.38657 -43.65586 40180 ft 521 kts 70°
2026-05-04 03:03 47.40572 -43.55259 40185 ft 521 kts 70°
2026-05-04 03:04 47.42462 -43.44996 40194 ft 520 kts 69°
2026-05-04 03:04 47.44352 -43.34676 40202 ft 520 kts 69°
2026-05-04 03:05 47.46228 -43.24383 40205 ft 519 kts 69°
2026-05-04 03:05 47.48108 -43.14013 40209 ft 520 kts 69°
2026-05-04 03:06 47.49969 -43.03688 40210 ft 521 kts 69°
2026-05-04 03:06 47.51825 -42.93331 40213 ft 523 kts 69°
2026-05-04 03:07 47.53682 -42.82897 40213 ft 523 kts 69°
2026-05-04 03:07 47.55523 -42.72497 40222 ft 523 kts 69°
2026-05-04 03:08 47.57352 -42.62107 40229 ft 525 kts 69°
2026-05-04 03:08 47.59190 -42.51625 40229 ft 530 kts 69°
2026-05-04 03:09 47.61034 -42.41022 40234 ft 530 kts 69°
2026-05-04 03:09 47.62858 -42.30460 40235 ft 530 kts 69°
2026-05-04 03:10 47.64687 -42.19813 40252 ft 531 kts 70°
2026-05-04 03:10 47.66490 -42.09266 40247 ft 532 kts 70°
2026-05-04 03:11 47.68306 -41.98568 40250 ft 532 kts 70°
2026-05-04 03:11 47.70092 -41.87983 40260 ft 532 kts 70°
2026-05-04 03:12 47.71878 -41.77338 40261 ft 532 kts 70°
2026-05-04 03:12 47.73664 -41.66624 40267 ft 532 kts 70°
2026-05-04 03:13 47.75427 -41.55982 40272 ft 532 kts 70°
2026-05-04 03:13 47.77179 -41.45333 40270 ft 531 kts 70°
2026-05-04 03:14 47.78925 -41.34652 40267 ft 529 kts 70°
2026-05-04 03:14 47.80642 -41.24084 40269 ft 527 kts 70°
2026-05-04 03:15 47.82354 -41.13486 40288 ft 526 kts 70°
2026-05-04 03:15 47.84063 -41.02847 40283 ft 527 kts 71°
2026-05-04 03:16 47.85750 -40.92273 40290 ft 526 kts 71°
2026-05-04 03:16 47.87425 -40.81688 40295 ft 523 kts 71°
2026-05-04 03:17 47.89084 -40.71148 40295 ft 522 kts 71°
2026-05-04 03:17 47.90734 -40.60606 40301 ft 522 kts 71°
2026-05-04 03:18 47.92377 -40.50037 40318 ft 522 kts 72°
2026-05-04 03:18 47.93989 -40.39581 40306 ft 518 kts 72°
2026-05-04 03:19 47.95591 -40.29132 40313 ft 517 kts 72°
2026-05-04 03:19 47.97195 -40.18614 40314 ft 517 kts 72°
2026-05-04 03:20 47.98779 -40.08157 40331 ft 517 kts 72°
2026-05-04 03:20 48.00620 -39.97842 40328 ft 511 kts 65°
2026-05-04 03:21 48.03037 -39.87843 40326 ft 510 kts 64°
2026-05-04 03:21 48.05528 -39.77946 40327 ft 510 kts 64°
2026-05-04 03:22 48.08014 -39.68067 40351 ft 510 kts 64°
2026-05-04 03:22 48.10501 -39.58102 40335 ft 510 kts 65°
2026-05-04 03:23 48.12962 -39.48161 40343 ft 510 kts 65°
2026-05-04 03:23 48.15415 -39.38204 40341 ft 510 kts 65°
2026-05-04 03:24 48.17858 -39.28243 40359 ft 510 kts 66°
2026-05-04 03:24 48.20287 -39.18301 40350 ft 510 kts 66°
2026-05-04 03:25 48.22715 -39.08313 40350 ft 510 kts 66°
2026-05-04 03:25 48.25134 -38.98317 40354 ft 510 kts 66°
2026-05-04 03:26 48.27552 -38.88281 40370 ft 510 kts 67°
2026-05-04 03:26 48.29951 -38.78282 40359 ft 509 kts 67°
2026-05-04 03:27 48.32343 -38.68258 40364 ft 509 kts 67°
2026-05-04 03:27 48.34715 -38.58278 40363 ft 509 kts 67°
2026-05-04 03:28 48.37102 -38.48187 40378 ft 509 kts 68°
2026-05-04 03:28 48.39463 -38.38160 40379 ft 509 kts 68°
2026-05-04 03:29 48.41817 -38.28115 40362 ft 509 kts 68°
2026-05-04 03:29 48.44145 -38.18140 40380 ft 509 kts 68°
2026-05-04 03:30 48.46487 -38.08056 40392 ft 509 kts 68°
2026-05-04 03:30 48.48814 -37.97986 40380 ft 508 kts 69°
2026-05-04 03:31 48.51126 -37.87936 40381 ft 508 kts 69°
2026-05-04 03:31 48.53435 -37.77854 40379 ft 508 kts 69°
2026-05-04 03:32 48.55735 -37.67760 40384 ft 508 kts 69°
2026-05-04 03:32 48.58020 -37.57684 40386 ft 509 kts 69°
2026-05-04 03:33 48.60299 -37.47590 40390 ft 509 kts 69°
2026-05-04 03:33 48.62574 -37.37463 40385 ft 508 kts 69°
2026-05-04 03:34 48.64843 -37.27311 40397 ft 508 kts 69°
2026-05-04 03:34 48.67098 -37.17180 40387 ft 507 kts 69°
2026-05-04 03:35 48.69333 -37.07083 40391 ft 507 kts 69°
2026-05-04 03:35 48.71568 -36.96941 40388 ft 507 kts 70°
2026-05-04 03:36 48.73782 -36.86847 40402 ft 507 kts 70°
2026-05-04 03:36 48.76000 -36.76678 40393 ft 506 kts 70°
2026-05-04 03:37 48.78194 -36.66576 40395 ft 506 kts 70°
2026-05-04 03:37 48.80385 -36.56437 40400 ft 506 kts 70°
2026-05-04 03:38 48.82570 -36.46274 40406 ft 506 kts 70°
2026-05-04 03:38 48.84747 -36.36097 40397 ft 505 kts 70°
2026-05-04 03:39 48.86899 -36.25990 40403 ft 505 kts 70°
2026-05-04 03:39 48.89053 -36.15819 40403 ft 505 kts 71°
2026-05-04 03:40 48.91208 -36.05596 40411 ft 505 kts 71°
2026-05-04 03:40 48.93333 -35.95460 40406 ft 505 kts 71°
2026-05-04 03:41 48.95451 -35.85309 40407 ft 505 kts 71°
2026-05-04 03:41 48.97571 -35.75095 40409 ft 505 kts 71°
2026-05-04 03:42 48.99673 -35.64920 40408 ft 505 kts 71°
2026-05-04 03:42 49.01776 -35.54686 40408 ft 504 kts 71°
2026-05-04 03:43 49.03847 -35.44553 40411 ft 504 kts 71°
2026-05-04 03:43 49.05934 -35.34289 40412 ft 504 kts 71°
2026-05-04 03:44 49.07995 -35.24104 40415 ft 504 kts 71°
2026-05-04 03:44 49.09705 -35.15613 40415 ft 503 kts 72°
2026-05-04 03:45 49.11748 -35.05416 40411 ft 503 kts 72°
2026-05-04 03:45 49.13794 -34.95153 40414 ft 503 kts 72°
2026-05-04 03:46 49.15812 -34.84980 40413 ft 503 kts 72°
2026-05-04 03:46 49.17842 -34.74685 40414 ft 503 kts 72°
2026-05-04 03:47 49.19849 -34.64456 40417 ft 502 kts 72°
2026-05-04 03:47 49.21836 -34.54277 40416 ft 502 kts 72°
2026-05-04 03:48 49.23832 -34.43999 40424 ft 502 kts 72°
2026-05-04 03:48 49.25813 -34.33738 40426 ft 502 kts 72°
2026-05-04 03:49 49.27768 -34.23555 40424 ft 502 kts 72°
2026-05-04 03:49 49.29731 -34.13279 40428 ft 501 kts 72°
2026-05-04 03:50 49.31684 -34.03000 40428 ft 501 kts 72°
2026-05-04 03:50 49.33623 -33.92740 40436 ft 501 kts 73°
2026-05-04 03:51 49.35561 -33.82429 40434 ft 501 kts 73°
2026-05-04 03:51 49.37471 -33.72208 40435 ft 501 kts 73°
2026-05-04 03:52 49.39382 -33.61924 40439 ft 501 kts 73°
2026-05-04 03:52 49.41286 -33.51623 40438 ft 501 kts 73°
2026-05-04 03:53 49.43176 -33.41339 40439 ft 501 kts 73°
2026-05-04 03:53 49.45052 -33.31074 40441 ft 500 kts 73°
2026-05-04 03:54 49.46924 -33.20772 40442 ft 500 kts 73°
2026-05-04 03:54 49.48791 -33.10440 40434 ft 501 kts 73°
2026-05-04 03:55 49.50638 -33.00160 40444 ft 500 kts 73°
2026-05-04 03:55 49.52494 -32.89771 40445 ft 500 kts 73°
2026-05-04 03:56 49.54318 -32.79502 40444 ft 500 kts 73°
2026-05-04 03:56 49.56149 -32.69140 40447 ft 500 kts 73°
2026-05-04 03:57 49.57968 -32.58775 40450 ft 500 kts 73°
2026-05-04 03:57 49.59772 -32.48445 40451 ft 500 kts 74°
2026-05-04 03:58 49.62471 -32.32870 40452 ft 500 kts 74°
2026-05-04 03:58 49.64244 -32.22559 40458 ft 501 kts 74°
2026-05-04 03:59 49.66023 -32.12156 40449 ft 500 kts 74°
2026-05-04 03:59 49.67791 -32.01759 40449 ft 500 kts 74°
2026-05-04 04:00 49.69549 -31.91355 40451 ft 500 kts 74°
2026-05-04 04:00 49.71287 -31.81000 40452 ft 500 kts 74°
2026-05-04 04:01 49.73023 -31.70607 40449 ft 500 kts 74°
2026-05-04 04:01 49.74752 -31.60182 40449 ft 500 kts 74°
2026-05-04 04:02 49.76477 -31.49720 40449 ft 500 kts 74°
2026-05-04 04:02 49.78177 -31.39352 40449 ft 500 kts 75°
2026-05-04 04:03 49.79878 -31.28906 40450 ft 500 kts 75°
2026-05-04 04:03 49.81567 -31.18473 40450 ft 500 kts 75°
2026-05-04 04:04 49.83247 -31.08027 40446 ft 500 kts 75°
2026-05-04 04:04 49.84910 -30.97628 40443 ft 500 kts 75°
2026-05-04 04:05 49.86577 -30.87130 40446 ft 500 kts 75°
2026-05-04 04:05 49.88230 -30.76657 40442 ft 500 kts 75°
2026-05-04 04:06 49.89872 -30.66188 40445 ft 500 kts 75°
2026-05-04 04:06 49.91499 -30.55744 40442 ft 500 kts 75°
2026-05-04 04:07 49.93117 -30.45293 40447 ft 500 kts 75°
2026-05-04 04:07 49.94732 -30.34793 40434 ft 499 kts 75°
2026-05-04 04:08 49.96340 -30.24270 40442 ft 499 kts 75°
2026-05-04 04:08 49.97924 -30.13834 40443 ft 499 kts 75°
2026-05-04 04:09 49.99515 -30.03287 40438 ft 499 kts 75°
2026-05-04 04:09 50.01072 -29.92820 40428 ft 498 kts 76°
2026-05-04 04:10 50.02585 -29.82311 40446 ft 498 kts 76°
2026-05-04 04:10 50.04090 -29.71757 40444 ft 498 kts 76°
2026-05-04 04:11 50.05576 -29.61305 40435 ft 498 kts 76°
2026-05-04 04:11 50.07071 -29.50743 40430 ft 498 kts 76°
2026-05-04 04:12 50.08552 -29.40215 40435 ft 497 kts 76°
2026-05-04 04:12 50.10014 -29.29744 40432 ft 497 kts 76°
2026-05-04 04:13 50.11476 -29.19197 40433 ft 497 kts 76°
2026-05-04 04:13 50.12925 -29.08662 40429 ft 497 kts 76°
2026-05-04 04:14 50.14366 -28.98117 40424 ft 497 kts 76°
2026-05-04 04:14 50.15793 -28.87596 40435 ft 497 kts 77°
2026-05-04 04:15 50.17221 -28.76996 40431 ft 497 kts 77°
2026-05-04 04:15 50.18630 -28.66454 40433 ft 497 kts 77°
2026-05-04 04:16 50.20034 -28.55870 40425 ft 497 kts 77°
2026-05-04 04:16 50.21427 -28.45292 40424 ft 497 kts 77°
2026-05-04 04:17 50.22804 -28.34763 40427 ft 497 kts 77°
2026-05-04 04:17 50.24183 -28.24135 40426 ft 497 kts 77°
2026-05-04 04:18 50.25545 -28.13556 40425 ft 497 kts 77°
2026-05-04 04:18 50.26903 -28.02926 40421 ft 497 kts 77°
2026-05-04 04:19 50.28245 -27.92335 40419 ft 496 kts 77°
2026-05-04 04:19 50.29577 -27.81753 40421 ft 496 kts 78°
2026-05-04 04:20 50.30897 -27.71174 40422 ft 496 kts 78°
2026-05-04 04:20 50.32211 -27.60570 40421 ft 496 kts 78°
2026-05-04 04:21 50.33516 -27.49950 40416 ft 496 kts 78°
2026-05-04 04:21 50.34809 -27.39339 40410 ft 496 kts 78°
2026-05-04 04:22 50.36089 -27.28756 40420 ft 496 kts 78°
2026-05-04 04:22 50.37364 -27.18122 40416 ft 496 kts 78°
2026-05-04 04:23 50.38632 -27.07468 40415 ft 496 kts 78°
2026-05-04 04:23 50.39884 -26.96852 40410 ft 496 kts 78°
2026-05-04 04:24 50.41128 -26.86226 40409 ft 497 kts 78°
2026-05-04 04:24 50.42360 -26.75605 40405 ft 496 kts 78°
2026-05-04 04:25 50.43584 -26.64971 40405 ft 496 kts 78°
2026-05-04 04:25 50.44801 -26.54306 40403 ft 496 kts 78°
2026-05-04 04:26 50.46010 -26.43621 40401 ft 496 kts 78°
2026-05-04 04:26 50.47206 -26.32958 40403 ft 496 kts 78°
2026-05-04 04:27 50.48392 -26.22294 40399 ft 495 kts 79°
2026-05-04 04:27 50.49560 -26.11698 40394 ft 495 kts 79°
2026-05-04 04:28 50.50733 -26.00956 40396 ft 495 kts 79°
2026-05-04 04:28 50.51883 -25.90342 40401 ft 495 kts 79°
2026-05-04 04:29 50.53028 -25.79665 40389 ft 495 kts 79°
2026-05-04 04:29 50.54159 -25.69032 40384 ft 494 kts 79°
2026-05-04 04:30 50.55283 -25.58369 40394 ft 494 kts 79°
2026-05-04 04:30 50.56397 -25.47707 40381 ft 494 kts 79°
2026-05-04 04:31 50.57320 -25.38790 40385 ft 494 kts 79°
2026-05-04 04:31 50.58412 -25.28149 40385 ft 494 kts 79°
2026-05-04 04:32 50.59502 -25.17437 40387 ft 494 kts 79°
2026-05-04 04:32 50.60573 -25.06808 40370 ft 494 kts 79°
2026-05-04 04:33 50.61638 -24.96141 40377 ft 494 kts 79°
2026-05-04 04:33 50.62699 -24.85400 40375 ft 494 kts 79°
2026-05-04 04:34 50.63740 -24.74762 40366 ft 494 kts 79°
2026-05-04 04:34 50.64780 -24.64032 40376 ft 494 kts 79°
2026-05-04 04:35 50.65806 -24.53345 40375 ft 494 kts 79°
2026-05-04 04:35 50.66819 -24.42679 40375 ft 494 kts 79°
2026-05-04 04:36 50.67826 -24.31977 40367 ft 494 kts 80°
2026-05-04 04:36 50.68823 -24.21263 40361 ft 494 kts 80°
2026-05-04 04:37 50.70783 -23.99883 40357 ft 493 kts 80°
2026-05-04 04:38 50.71749 -23.89170 40360 ft 493 kts 80°
2026-05-04 04:38 50.72705 -23.78462 40359 ft 492 kts 80°
2026-05-04 04:39 50.73651 -23.67753 40357 ft 492 kts 80°
2026-05-04 04:39 50.74582 -23.57097 40357 ft 492 kts 80°
2026-05-04 04:40 50.75508 -23.46380 40350 ft 492 kts 81°
2026-05-04 04:40 50.76424 -23.35670 40348 ft 491 kts 81°
2026-05-04 04:41 50.77326 -23.24994 40347 ft 491 kts 81°
2026-05-04 04:41 50.78220 -23.14302 40346 ft 491 kts 81°
2026-05-04 04:42 50.79085 -23.03839 40348 ft 491 kts 81°
2026-05-04 04:42 50.79960 -22.93131 40346 ft 491 kts 81°
2026-05-04 04:43 50.80824 -22.82433 40344 ft 491 kts 81°
2026-05-04 04:43 50.81679 -22.71717 40344 ft 491 kts 81°
2026-05-04 04:44 50.82526 -22.60984 40346 ft 491 kts 81°
2026-05-04 04:44 50.83355 -22.50341 40333 ft 490 kts 81°
2026-05-04 04:45 50.84181 -22.39621 40333 ft 490 kts 81°
2026-05-04 04:47 50.86980 -22.02241 40329 ft 488 kts 81°
2026-05-04 04:47 50.87757 -21.91557 40325 ft 488 kts 82°
2026-05-04 04:48 50.88525 -21.80874 40320 ft 488 kts 82°
2026-05-04 04:49 50.90401 -21.54145 40317 ft 487 kts 82°
2026-05-04 04:49 50.91128 -21.43542 40318 ft 487 kts 82°
2026-05-04 04:50 50.91850 -21.32865 40314 ft 487 kts 82°
2026-05-04 04:50 50.92563 -21.22186 40315 ft 487 kts 82°
2026-05-04 04:51 50.93266 -21.11495 40312 ft 486 kts 82°
2026-05-04 04:51 50.93957 -21.00827 40309 ft 486 kts 82°
2026-05-04 04:52 50.94639 -20.90163 40306 ft 486 kts 82°
2026-05-04 04:52 50.95311 -20.79499 40303 ft 486 kts 82°
2026-05-04 04:53 50.95972 -20.68840 40319 ft 486 kts 82°
2026-05-04 04:53 50.96618 -20.58265 40300 ft 485 kts 82°
2026-05-04 04:54 50.97258 -20.47635 40301 ft 484 kts 82°
2026-05-04 04:54 50.97890 -20.36979 40298 ft 484 kts 82°
2026-05-04 04:55 50.98511 -20.26333 40298 ft 484 kts 82°
2026-05-04 04:55 50.99122 -20.15696 40293 ft 483 kts 82°
2026-05-04 04:56 50.99718 -20.05139 40293 ft 482 kts 83°
2026-05-04 04:56 51.00257 -19.94515 40290 ft 483 kts 85°
2026-05-04 04:57 51.00456 -19.83845 40289 ft 483 kts 86°
2026-05-04 04:57 51.00582 -19.73170 40287 ft 483 kts 86°
2026-05-04 04:58 51.00743 -19.62566 40284 ft 483 kts 86°
2026-05-04 04:58 51.00927 -19.51894 40284 ft 483 kts 86°
2026-05-04 04:59 51.01109 -19.41233 40284 ft 483 kts 86°
2026-05-04 04:59 51.01281 -19.30562 40284 ft 483 kts 86°
2026-05-04 05:00 51.01441 -19.19883 40283 ft 482 kts 86°
2026-05-04 05:01 51.01661 -19.03941 40281 ft 480 kts 86°
2026-05-04 05:01 51.01795 -18.93389 40276 ft 480 kts 86°
2026-05-04 05:02 51.01920 -18.82780 40271 ft 481 kts 86°
2026-05-04 05:02 51.02036 -18.72167 40281 ft 481 kts 86°
2026-05-04 05:03 51.02141 -18.61575 40270 ft 479 kts 86°
2026-05-04 05:04 51.02323 -18.40437 40264 ft 478 kts 86°
2026-05-04 05:04 51.02400 -18.29850 40265 ft 479 kts 86°
2026-05-04 05:06 51.02612 -17.87604 40256 ft 478 kts 87°
2026-05-04 05:07 51.02641 -17.77117 40249 ft 478 kts 87°
2026-05-04 05:07 51.02660 -17.66523 40253 ft 477 kts 87°
2026-05-04 05:09 51.02631 -17.19125 40241 ft 477 kts 87°
2026-05-04 05:10 51.02599 -17.08647 40249 ft 477 kts 87°
2026-05-04 05:10 51.02556 -16.98072 40235 ft 477 kts 87°
2026-05-04 05:11 51.02505 -16.87516 40238 ft 477 kts 87°
2026-05-04 05:11 51.02444 -16.77015 40231 ft 477 kts 87°
2026-05-04 05:12 51.02374 -16.66511 40230 ft 477 kts 87°
2026-05-04 05:12 51.02294 -16.55923 40233 ft 477 kts 87°
2026-05-04 05:13 51.02205 -16.45453 40221 ft 477 kts 88°
2026-05-04 05:13 51.02106 -16.34900 40225 ft 477 kts 88°
2026-05-04 05:14 51.01998 -16.24407 40230 ft 477 kts 88°
2026-05-04 05:14 51.01880 -16.13835 40219 ft 477 kts 88°
2026-05-04 05:15 51.01753 -16.03334 40215 ft 477 kts 88°
2026-05-04 05:15 51.01617 -15.92839 40214 ft 477 kts 88°
2026-05-04 05:16 51.01471 -15.82286 40207 ft 477 kts 88°
2026-05-04 05:16 51.01315 -15.71745 40206 ft 477 kts 88°
2026-05-04 05:17 51.01151 -15.61245 40204 ft 477 kts 88°
2026-05-04 05:17 51.00977 -15.50775 40213 ft 477 kts 88°
2026-05-04 05:18 51.00793 -15.40198 40191 ft 477 kts 88°
2026-05-04 05:18 51.00600 -15.29703 40193 ft 477 kts 89°
2026-05-04 05:19 51.00396 -15.19127 40193 ft 477 kts 89°
2026-05-04 05:19 51.00185 -15.08646 40191 ft 478 kts 89°
2026-05-04 05:20 50.99966 -14.98109 40178 ft 477 kts 89°
2026-05-04 05:20 50.99934 -14.89369 40180 ft 476 kts 86°
2026-05-04 05:21 51.00023 -14.78845 40171 ft 476 kts 86°
2026-05-04 05:21 51.00088 -14.68314 40173 ft 476 kts 86°
2026-05-04 05:22 51.00112 -14.57791 40174 ft 477 kts 87°
2026-05-04 05:22 51.00114 -14.47275 40170 ft 477 kts 87°
2026-05-04 05:23 51.00104 -14.36750 40170 ft 476 kts 87°
2026-05-04 05:23 51.00087 -14.26229 40169 ft 477 kts 87°
2026-05-04 05:24 51.00061 -14.15700 40157 ft 477 kts 87°
2026-05-04 05:24 50.99934 -14.05223 40169 ft 479 kts 92°
2026-05-04 05:25 50.98399 -13.94876 40399 ft 486 kts 109°
2026-05-04 05:25 50.97092 -13.89951 40535 ft 487 kts 111°
2026-05-04 05:25 50.95684 -13.85052 40604 ft 489 kts 112°
2026-05-04 05:26 50.92749 -13.75305 40840 ft 490 kts 112°
2026-05-04 05:26 50.91270 -13.70438 40958 ft 489 kts 113°
2026-05-04 05:26 50.89798 -13.65580 41059 ft 490 kts 112°
2026-05-04 05:28 50.77992 -13.26443 41130 ft 494 kts 113°
2026-05-04 05:29 50.75007 -13.16636 41119 ft 495 kts 112°
2026-05-04 05:29 50.72013 -13.06836 41117 ft 495 kts 113°
2026-05-04 05:31 50.59979 -12.67848 41090 ft 496 kts 114°
2026-05-04 05:32 50.56935 -12.58077 41091 ft 496 kts 114°
2026-05-04 05:33 50.52373 -12.43521 41083 ft 496 kts 114°
2026-05-04 05:33 50.49320 -12.33829 41077 ft 495 kts 113°
2026-05-04 05:34 50.46255 -12.24134 41073 ft 496 kts 113°
2026-05-04 05:34 50.43192 -12.14476 41072 ft 496 kts 114°
2026-05-04 05:35 50.40109 -12.04799 41056 ft 495 kts 113°
2026-05-04 05:35 50.37027 -11.95163 41056 ft 495 kts 113°
2026-05-04 05:36 50.33935 -11.85531 41042 ft 495 kts 114°
2026-05-04 05:36 50.30841 -11.75929 41042 ft 495 kts 114°
2026-05-04 05:37 50.27735 -11.66331 41034 ft 495 kts 114°
2026-05-04 05:37 50.24604 -11.56692 41031 ft 496 kts 114°
2026-05-04 05:38 50.19926 -11.42352 41023 ft 495 kts 114°
2026-05-04 05:38 50.16792 -11.32796 41023 ft 495 kts 115°
2026-05-04 05:39 50.12082 -11.18503 41015 ft 495 kts 115°
2026-05-04 05:40 50.07330 -11.04160 41009 ft 496 kts 115°
2026-05-04 05:40 50.04161 -10.94640 41008 ft 495 kts 115°
2026-05-04 05:41 50.00993 -10.85161 41007 ft 495 kts 116°
2026-05-04 05:41 49.97807 -10.75666 41004 ft 495 kts 116°
2026-05-04 05:42 49.94617 -10.66193 41004 ft 495 kts 116°
2026-05-04 05:42 49.91421 -10.56734 40998 ft 495 kts 116°
2026-05-04 05:43 49.88213 -10.47276 40993 ft 495 kts 116°
2026-05-04 05:45 49.75311 -10.09592 40995 ft 496 kts 116°
2026-05-04 05:47 49.62263 -9.72038 40980 ft 496 kts 117°
2026-05-04 05:47 49.58996 -9.62722 40979 ft 496 kts 117°
2026-05-04 05:48 49.55704 -9.53368 40977 ft 496 kts 117°
2026-05-04 05:48 49.52396 -9.44001 40977 ft 497 kts 117°
2026-05-04 05:49 49.49110 -9.34733 40975 ft 497 kts 118°
2026-05-04 05:49 49.45798 -9.25422 40971 ft 497 kts 118°
2026-05-04 05:51 49.32449 -8.88237 40966 ft 497 kts 118°
2026-05-04 05:52 49.29100 -8.78994 40966 ft 496 kts 118°
2026-05-04 05:52 49.25751 -8.69779 40963 ft 496 kts 118°
2026-05-04 05:54 49.12251 -8.32969 40961 ft 496 kts 119°
2026-05-04 05:55 49.08863 -8.23812 40960 ft 496 kts 119°
2026-05-04 05:55 49.05469 -8.14670 40960 ft 496 kts 119°
2026-05-04 05:56 49.02146 -8.05387 40960 ft 496 kts 114°
2026-05-04 05:56 49.00277 -7.95350 40960 ft 495 kts 95°
2026-05-04 05:57 49.00082 -7.84924 40960 ft 495 kts 89°
2026-05-04 05:57 49.00221 -7.74469 40957 ft 496 kts 88°
2026-05-04 05:58 49.00380 -7.63931 40958 ft 496 kts 89°
2026-05-04 05:58 49.00388 -7.53381 40958 ft 496 kts 95°
2026-05-04 05:59 48.98952 -7.43224 40958 ft 495 kts 108°
2026-05-04 05:59 48.96677 -7.33239 40957 ft 496 kts 110°
2026-05-04 06:00 48.94290 -7.23419 40960 ft 496 kts 110°
2026-05-04 06:00 48.91900 -7.13590 40960 ft 496 kts 110°
2026-05-04 06:01 48.89526 -7.03764 40958 ft 496 kts 110°
2026-05-04 06:03 48.79969 -6.64473 40960 ft 495 kts 110°
2026-05-04 06:05 48.69078 -6.20543 40957 ft 496 kts 111°
2026-05-04 06:06 48.67033 -6.12387 40962 ft 496 kts 111°
2026-05-04 06:06 48.64180 -6.01060 40960 ft 496 kts 111°
2026-05-04 06:07 48.61712 -5.91312 40958 ft 496 kts 111°
2026-05-04 06:07 48.59247 -5.81614 40957 ft 496 kts 111°
2026-05-04 06:08 48.56765 -5.71888 40963 ft 495 kts 111°
2026-05-04 06:08 48.54695 -5.63811 40960 ft 495 kts 111°
2026-05-04 06:09 48.52203 -5.54124 40963 ft 496 kts 112°
2026-05-04 06:11 48.42153 -5.15469 40962 ft 496 kts 112°
2026-05-04 06:13 48.31962 -4.76923 40959 ft 496 kts 113°
2026-05-04 06:14 48.22915 -4.43229 40966 ft 496 kts 113°
2026-05-04 06:15 48.20320 -4.33658 40968 ft 496 kts 113°
2026-05-04 06:15 48.17726 -4.24122 40960 ft 497 kts 113°
2026-05-04 06:16 48.15092 -4.14485 40966 ft 498 kts 113°
2026-05-04 06:16 48.12468 -4.04917 40966 ft 498 kts 114°
2026-05-04 06:17 48.09835 -3.95359 40966 ft 498 kts 114°
2026-05-04 06:17 48.07184 -3.85774 40967 ft 498 kts 114°
2026-05-04 06:18 48.04533 -3.76227 40966 ft 498 kts 114°
2026-05-04 06:20 47.93826 -3.38049 40956 ft 499 kts 114°
2026-05-04 06:21 47.87066 -3.14256 40966 ft 498 kts 114°
2026-05-04 06:22 47.84364 -3.04811 40966 ft 498 kts 115°
2026-05-04 06:25 47.63847 -2.39660 40966 ft 495 kts 126°
2026-05-04 06:26 47.59998 -2.31190 40967 ft 495 kts 126°
2026-05-04 06:26 47.56163 -2.22806 40965 ft 495 kts 126°
2026-05-04 06:27 47.46513 -2.01694 40966 ft 495 kts 126°
2026-05-04 06:28 47.42650 -1.93277 40966 ft 496 kts 127°
2026-05-04 06:28 47.38786 -1.84884 40965 ft 496 kts 127°
2026-05-04 06:29 47.34887 -1.76442 40966 ft 495 kts 127°
2026-05-04 06:29 47.31002 -1.68054 40967 ft 495 kts 127°
2026-05-04 06:30 47.27122 -1.59704 40964 ft 495 kts 127°
2026-05-04 06:30 47.23224 -1.51340 40966 ft 495 kts 127°
2026-05-04 06:31 47.19338 -1.43029 40966 ft 495 kts 127°
2026-05-04 06:31 47.15425 -1.34683 40963 ft 495 kts 127°
2026-05-04 06:33 46.99765 -1.01534 40950 ft 493 kts 127°
2026-05-04 06:34 46.95854 -0.93317 40954 ft 493 kts 128°
2026-05-04 06:34 46.91926 -0.85090 40952 ft 493 kts 128°
2026-05-04 06:36 46.76162 -0.52312 40950 ft 493 kts 128°
2026-05-04 06:37 46.72220 -0.44174 40944 ft 493 kts 128°
2026-05-04 06:37 46.68258 -0.36020 40943 ft 493 kts 128°
2026-05-04 06:38 46.64290 -0.27877 40940 ft 493 kts 128°
2026-05-04 06:40 46.50230 0.06472 40951 ft 495 kts 123°
2026-05-04 06:40 46.46726 0.15128 40958 ft 495 kts 123°
2026-05-04 06:41 46.43247 0.23689 40959 ft 495 kts 123°
2026-05-04 06:41 46.39730 0.32317 40939 ft 495 kts 124°
2026-05-04 06:42 46.36225 0.40890 40915 ft 495 kts 124°
2026-05-04 06:44 46.22135 0.75082 40945 ft 495 kts 124°
2026-05-04 06:44 46.18609 0.83573 40948 ft 495 kts 124°
2026-05-04 06:45 46.15046 0.92128 40940 ft 496 kts 125°
2026-05-04 06:45 46.11497 1.00621 40963 ft 496 kts 125°
2026-05-04 06:46 46.07933 1.09125 40950 ft 496 kts 125°
2026-05-04 06:46 46.04366 1.17611 40967 ft 496 kts 125°
2026-05-04 06:48 45.95267 1.49470 40969 ft 513 kts 92°
2026-05-04 06:48 45.95381 1.54569 40968 ft 515 kts 90°